星链-31736 (STARLINK-31736 )

导读 | 豆包AI

STARLINK-31736是美国SpaceX星链星座的卫星,于2024年4月18日发射入轨,属于星链低轨互联网星座组网卫星。星链计划旨在构建全球覆盖的卫星互联网,该卫星加入后进一步扩展星座规模,提升全球尤其是偏远地区网络接入能力,低轨部署也让其具备更低网络延迟优势。

Basic Information
目录编号:
59547
目录名称:
STARLINK-31736
国际标识:
2024-074P
轨道中心:
EARTH
卫星名称:
星链-31736
卫星全名:
星链-31736 (STARLINK-31736 )
卫星状态:
在轨 (已飞行696 天)
发射日期:
2024-04-18 UTC
国别 :
美国 (US)
星等 :
--
Orbit Information
数据来源 国际轨道数据
星历时间: 2026-03-15T05:56:15+0800
23小时前
查看轨道信息
半长轴: 6861.174km
偏心率: 0.0001716
轨道倾角: 43.003°
近地点辐角 236.565°
升交点赤经 307.063°
平近点角 123.504°
近地点: 481.859km
远地点: 484.215km
周期: 94.266分钟
每日圈数: 15.275843
Detailed Information
固有亮度:
5
最大亮度:
1.5
卫星平台:
Starlink v2.0 mini
覆盖范围:
全球
运营商:
太空探索技术公司
运营商所在国:
美国
制造商(研发单位):
太空探索技术公司
制造商所在国:
美国
使用方式:
暂无
Satellite Introduction
星链(Starlink)计划是由太空探索技术公司(SpaceX)提出的一个巨型低轨卫星互联网星座项目,计划在2019年至2024年间在太空搭建由约1.2万颗卫星组成的“星链”网络,其中1584颗将部署在地球上空550千米处的近地轨道,并从2020年开始工作。该卫星仍在工作。
2D Orbit Map
3D Orbit Map
Orbit Altitude Analysis Chart
Orbit Inclination Analysis Chart
Orbit Comprehensive Analysis Chart
View Comprehensive Chart